Regional Weather Roundup
Issued by NWS

Home | Current Version | Previous Version | Graphics & Text | Print | Product List | Glossary Off
Versions: 1 2 3 4 5 6 7 8 9 10 11 12 13 14 15 16 17 18 19 20 21 22 23 24 25 26 27 28 29 30 31 32 33 34 35 36 37 38 39 40 41 42 43 44 45 46 47 48 49 50

000
ASUS43 KDMX 301507
RWRIA

WEATHER ROUNDUP FOR IOWA
NATIONAL WEATHER SERVICE DES MOINES IA
1000 AM CDT SAT AUG 30 2014

NOTE: "FAIR" INDICATES FEW OR NO CLOUDS BELOW 12,000 FEET WITH NO
SIGNIFICANT WEATHER AND/OR OBSTRUCTIONS TO VISIBILITY.

* - THESE STATIONS ARE NOT NWS STATIONS...THUS NOT UNDER NWS
QUALITY CONTROL.  THEY ALSO DO NOT REPORT WEATHER SUCH
AS PRECIPITATION OR FOG.

IAZ001>003-012>014-020>022-031>034-043>046-301600-
   NORTHWEST IOWA

CITY           SKY/WX    TMP DP  RH WIND       PRES   REMARKS
CARROLL *      CLOUDY    68  66  94 VRB7G13   29.92R
CHEROKEE *     CLOUDY    66  66 100 NW5       29.92R
DENISON *      CLOUDY    66  66 100 NW6       29.92R FOG
LE MARS *      CLOUDY    64  61  88 W8        29.94S
ORANGE CITY *  CLOUDY    66  63  88 W9        29.93R
SHELDON *      CLOUDY    68  68 100 NW7       29.91S
SIOUX CITY     CLOUDY    65  60  84 NW9       29.94S
SPENCER        CLOUDY    67  64  90 NW7       29.91S
STORM LAKE *   CLOUDY    66  66 100 NW7       29.92R FOG
$$

IAZ055>058-069>071-079>083-090>094-301600-
   SOUTHWEST IOWA

CITY           SKY/WX    TMP DP  RH WIND       PRES   REMARKS
ATLANTIC *     CLOUDY    66  66 100 NW6       29.93R FOG
AUDUBON *      CLOUDY    70  66  88 CALM      29.94R FOG
CLARINDA *     MOSUNNY   70  68  94 CALM      29.95R
COUNCIL BLFS * FOG       66  66 100 NW7       29.94R VSB 1/4
CRESTON *      MOSUNNY   72  68  88 NW9       29.93R
HARLAN  *      CLOUDY    66  66 100 NW10      29.97R FOG
LAMONI         CLOUDY    69  66  90 NW8       29.93R
RED OAK *      CLOUDY    70  66  88 W5        29.94R
SHENANDOAH *   SUNNY     72  68  88 NW6       29.95R
$$

IAZ047>049-059>061-072>074-084-301600-
   CENTRAL IOWA

CITY           SKY/WX    TMP DP  RH WIND       PRES   REMARKS
AMES           PTSUNNY   72  66  81 W9        29.89R
ANKENY *       CLOUDY    70  66  88 NW8       29.89R
CHARITON *     CLOUDY    68  68 100 VRB7      29.92R FOG
DES MOINES     CLOUDY    72  66  81 NW8       29.89R
GRINNELL*      CLOUDY    68  64  88 W9        29.90R
KNOXVILLE *    CLOUDY    68  66  94 W10       29.89S
MARSHALLTOWN   CLOUDY    70  66  87 W9        29.87R
PELLA *        CLOUDY    70  66  88 W7        29.91R
PERRY *        CLOUDY    70  68  94 W7        29.90R
$$

IAZ004>006-015-016-023>025-035-036-301600-
   NORTH CENTRAL IOWA

CITY           SKY/WX    TMP DP  RH WIND       PRES   REMARKS
ALGONA *       PTSUNNY   68  66  94 NW9       29.89R
CLARION *      CLOUDY    68  68 100 NW9       29.89R
ESTHERVILLE    CLOUDY    66  63  90 NW9       29.90R
FORT DODGE *   CLOUDY    66  64  94 NW7       29.90S
MASON CITY     CLOUDY    70  67  90 NW10      29.88R
FOREST CITY *  CLOUDY    70  68  94 NW9       29.87S
IOWA FALLS *   CLOUDY    70  64  83 W7        29.89S
$$

IAZ007>011-017>019-026>030-037>042-050>054-066-301600-
   NORTHEAST IOWA

CITY           SKY/WX    TMP DP  RH WIND       PRES   REMARKS
CEDAR RAPIDS   CLOUDY    71  68  90 W13       29.85R
CHARLES CITY * CLOUDY    70  66  88 W9        29.86R
CLINTON *      CLOUDY    72  64  78 W16G22    29.87S
DECORAH *      CLOUDY    70  66  88 NW8       29.82R
DUBUQUE        CLOUDY    70  67  90 W13       29.83R
MONTICELLO *   PTSUNNY   73  70  88 W10       29.83R
OELWEIN *      CLOUDY    70  68  94 W9        29.85R
WATERLOO       CLOUDY    71  67  87 W10       29.84R
$$

IAZ064-065-067-068-078-301600-
   EAST CENTRAL IOWA

CITY           SKY/WX    TMP DP  RH WIND       PRES   REMARKS
DAVENPORT      CLOUDY    71  66  84 W12       29.87R
IOWA CITY      CLOUDY    71  67  87 W12       29.87R
MT. PLEASANT * MOSUNNY   75  66  73 W7        29.89S
MUSCATINE *    CLOUDY    73  68  83 SW10      29.87S
QUAD CITIES    CLOUDY    74  67  78 W13       29.86R
$$

IAZ062-063-075>077-085>089-095>099-301600-
   SOUTHEAST IOWA

CITY           SKY/WX    TMP DP  RH WIND       PRES   REMARKS
BURLINGTON     MOSUNNY   74  69  85 W6        29.89R
FAIRFIELD *    PTSUNNY   73  66  78 W7        29.89S
FORT MADISON * MOSUNNY   77  70  78 W6        29.90S
KEOKUK *       SUNNY     75  70  83 W12       29.89S
OSKALOOSA *      N/A     73  68  83 W9        29.89S
CENTERVILLE *  CLOUDY    70  70 100 W7        29.93R
OTTUMWA        PTSUNNY   73  67  81 W8        29.89R
WASHINGTON *   MOSUNNY   73  68  83 SW10      29.87F
$$

ABBREVIATIONS USED IN REMARKS
   TC - TEMPERATURES IN CELSIUS
  WCI - WIND CHILL INDEX
   HX - HEAT INDEX
  VSB - VISIBILITY
$$




USA.gov is the U.S. government's official web portal to all federal, state and local government web resources and services.